SALSAT
1 46495U 20068K   25256.19028260  .00005770  00000-0  24057-3 0  9992
2 46495  97.8709 238.7702 0011004 179.1831 180.9425 15.24073986273089
TUBIN
1 48900U 21059X   25256.26991350  .00054708  00000-0  45138-3 0  9991
2 48900  97.6778  73.9330 0002886 230.9403 129.1602 15.70179225235007
LEDSAT
1 49069U 21073D   25255.70513278  .00188990  00000-0  98652-3 0  9991
2 49069  97.3760 342.2518 0002690 106.7436 253.4127 15.80355034226346
CUTE
1 49263U 21088D   25256.16021106  .00025541  00000-0  43219-3 0  9999
2 49263  97.4415 335.4441 0005398 232.4995 127.5767 15.51543869219227
TeikyoSat 4
1 49396U 21102B   25256.04747472  .00001856  00000-0  12429-3 0  9993
2 49396  97.4033 291.0157 0013024 159.2257 200.9504 15.08021518210931
Z-Sat
1 49399U 21102E   25256.20622906  .00003238  00000-0  17530-3 0  9992
2 49399  97.3722 294.8748 0019249 129.3677 230.9265 15.15172022211454
KOSEN 1
1 49402U 21102H   25256.07330750  .00005226  00000-0  23426-3 0  9995
2 49402  97.3620 298.9065 0017213 104.2135 256.1014 15.21522890211803
HO-113
1 50466U 21131B   25256.31443682  .00000403  00000-0  13950-3 0  9998
2 50466  98.5083 345.1947 0003898 193.6429 166.4655 14.40920537195239
SNUGLITE 2
1 52899U 22065F   25256.15215702  .00000996  00000-0  20171-3 0  9999
2 52899  98.1824  37.2775 0007853 165.4691 194.6738 14.63436378170464
UmKA 1 (RS40S)
1 57172U 23091G   25256.25913504  .00004141  00000-0  21620-3 0  9990
2 57172  97.5483 311.1573 0014004  10.1635 349.9878 15.16401867121973
CubeBel-2 (EU11S)
1 57175U 23091K   25256.21776584  .00006749  00000-0  30663-3 0  9997
2 57175  97.5481 312.8859 0011620  17.0302 343.1321 15.21041792122082
ENSO
1 58470U 23185J   25256.31833416  .00095797  00000-0  80213-3 0  9996
2 58470  97.3617 335.2632 0003859 107.8516 252.3167 15.69674928 99973
SONATE-2
1 59112U 24043Q   25255.60130233  .00017031  00000-0  44248-3 0  9995
2 59112  97.5253  28.9499 0010924 132.9076 227.3088 15.38963228 84937
MO-122
1 60209U 24125G   25256.04293286  .00015970  00000-0  40610-3 0  9991
2 60209  97.2677 106.7525 0018169 149.1075 211.1245 15.39519117 66623
GRBBeta
1 60237U 24128C   25256.07247496  .00003072  00000-0  23238-3 0  9997
2 60237  61.9900 106.4180 0056733  78.1836 282.5611 15.03445058 64552
Curium One
1 60242U 24128H   25256.13448201  .00005405  00000-0  36522-3 0  9999
2 60242  61.9797 102.9616 0056613  75.0684 285.6668 15.06526961 64621
ROBUSTA-3A
1 60243U 24128J   25256.16855789  .00005411  00000-0  37114-3 0  9991
2 60243  61.9868 104.0057 0055996  72.4497 288.2703 15.05993828 64616
CatSat
1 60246U 24125J   25255.82722754  .00016249  00000-0  49519-3 0  9991
2 60246  97.2495 104.6241 0041500 113.6821 246.8786 15.33171811 64569
HYPERVIEW-1G (RS66S)
1 61772U 24199AP  25256.23221122  .00018277  00000-0  46619-3 0  9997
2 61772  97.3369 125.0630 0011661 199.0439 161.0373 15.39501002 91657
AO-123
1 61781U 24199AY  25256.26432837  .00005515  00000-0  19426-3 0  9994
2 61781  97.3393 122.8015 0014276 212.4346 147.6018 15.29616573 91507
ZIMSAT 2
1 61783U 24199BA  25256.25642192  .00042577  00000-0  79911-3 0  9996
2 61783  97.3326 126.6367 0010847 188.7595 171.3468 15.48442067 94915
HADES-R (SO-124)
1 62690U 25009CK  25255.69270518  .00041634  00000-0  11639-2 0  9996
2 62690  97.4015 336.5321 0003066 136.9178 223.2307 15.36560045 36715
HYDRA-T
1 62692U 25009CM  25256.17782790  .00040346  00000-0  11102-2 0  9996
2 62692  97.4014 337.1041 0002633 133.5967 226.5496 15.37060166 36793
JINJUSat 1B
1 63210U 25052A   25255.42691300  .00008371  00000-0  36167-3 0  9995
2 63210  97.4267 148.4042 0004344  23.9359 336.2079 15.22729234 27677
NUSHSAT 1
1 63211U 25052B   25254.67849663  .00011079  00000-0  47107-3 0  9994
2 63211  97.4256 147.6992 0004648  30.4361 329.7145 15.23190150 27563
TEVEL2-4
1 63213U 25052D   25254.64746916  .00012899  00000-0  55444-3 0  9994
2 63213  97.4174 147.3939 0004521  47.4357 312.7260 15.22783365 27559
TEVEL2-5
1 63214U 25052E   25256.16109940  .00009859  00000-0  42470-3 0  9991
2 63214  97.4172 148.8842 0004413  44.5161 315.6430 15.22778953 27781
TEVEL2-6
1 63215U 25052F   25255.44290116  .00009700  00000-0  41863-3 0  9998
2 63215  97.4174 148.1672 0004574  46.3928 313.7687 15.22721021 27672
TEVEL2-1
1 63217U 25052H   25255.66560300  .00010901  00000-0  47345-3 0  9995
2 63217  97.4146 148.2689 0005037  53.1451 307.0247 15.22471205 27702
TEVEL2-3
1 63218U 25052J   25254.67980403  .00010044  00000-0  43665-3 0  9995
2 63218  97.4149 147.2979 0005197  56.2170 303.9561 15.22458660 27553
TEVEL2-2
1 63219U 25052K   25255.92920731  .00009887  00000-0  42970-3 0  9994
2 63219  97.4146 148.5287 0005060  53.0017 307.1682 15.22471904 27748
TEVEL2-9
1 63237U 25052AD  25255.67785731  .00009762  00000-0  44043-3 0  9990
2 63237  97.4211 148.1013 0009566  53.8923 306.3197 15.21168082 27687
TEVEL2-7
1 63238U 25052AE  25255.68469837  .00009556  00000-0  43231-3 0  9997
2 63238  97.4213 148.0964 0009612  53.7639 306.4484 15.21079568 27689
TEVEL2-8
1 63239U 25052AF  25256.14915943  .00008874  00000-0  40201-3 0  9990
2 63239  97.4211 148.5432 0009613  52.6915 307.5195 15.21057836 27752
HYDRA-W
1 63490U 25052BL  25254.93794901  .00028764  00000-0  10361-2 0  9996
2 63490  97.4157 148.3502 0012648  51.9493 308.2886 15.28449667 27648
HADES-ICM (SO-125)
1 63492U 25052BN  25256.16708394  .00023530  00000-0  86727-3 0  9992
2 63492  97.4162 149.4709 0012933  51.2264 309.0129 15.27732582 27822
